Retour au catalogue

OPS 4682 DEB

ActifPO
NORAD 51491·DEBRIS·🇺🇸 United States

Lancé Apr 3, 1965 depuis Vandenberg Space Force Base

Loading…

Prochains Passages (prochaines 24 heures)

TLE

FraisSource: Space-Track

Époque: Sep 14, 2026, 07:28 UTC

1 51491U 65027GB  26257.31122213  .00000041  00000-0  11589-3 0  9999
2 51491  90.2648  18.8038 0027655 260.0566 127.2187 12.97013634579240

Suivez OPS 4682 DEB en temps réel avec AllMySat

Download on the App Store